Oroville, CA

8:06 AM PDT on August 17, 2017 (GMT -0700)
Oroville Municipal

Weather History for KOVE - November, 2012

Change the Weather History Date:

Monday, November 5, 2012

  Actual Average Record
Temperature  
Mean Temperature 63 °F -  
Max Temperature 75 °F 70 °F 80 °F (1993)
Min Temperature 51 °F 46 °F 35 °F (1959)
Degree Days  
Heating Degree Days 2    
Growing Degree Days 13 (Base 50)    
Moisture  
Dew Point 54 °F    
Average Humidity 75    
Maximum Humidity 96    
Minimum Humidity 46    
Precipitation  
Precipitation 0.00 in - - ()
Sea Level Pressure  
Sea Level Pressure 30.14 in    
Wind  
Wind Speed 2 mph (ENE)    
Max Wind Speed 5 mph    
Max Gust Speed -    
Visibility 10 miles    
Events      
Averages and records for this station are not official NWS values.
T = Trace of Precipitation, MM = Missing Value Source: NWS Daily Summary

Daily Weather History Graph

Daily Weather History Graph

Search for Another Location

Airport or City:

Trip Planner

Search our weather history database for the weather conditions in past years. The results will help you decide how hot, cold, wet, or windy it might be!

Date:

Astronomy

Nov. 05, 2012 Rise Set
Actual Time 6:39 AM PST 4:59 PM PST
Civil Twilight 6:11 AM PST 5:28 PM PST
Nautical Twilight 5:39 AM PST 5:59 PM PST
Astronomical Twilight 5:08 AM PST 6:31 PM PST
Moon 10:42 PM PST (11/5) 12:02 PM PST (11/5)
Length of Visible Light 11h 16m
Length of Day
10h 20m
Waning Gibbous, 62% of the Moon is Illuminated
Nov 5
Waning Gibbous
Nov 6
Last Quarter
Nov 13
New
Nov 20
First Quarter
Nov 28
Full

Hourly Weather History & Observations

Time (PST) Temp. Dew Point Humidity Pressure Visibility Wind Dir Wind Speed Gust Speed Precip Events Conditions
12:53 AM 55.0 °F 53.1 °F 93% 30.18 in 10.0 mi NE 3.5 mph - N/A   Clear
1:53 AM 53.1 °F 51.1 °F 93% 30.17 in 10.0 mi Calm Calm - N/A   Clear
2:53 AM 55.0 °F 53.1 °F 93% 30.17 in 10.0 mi East 3.5 mph - N/A   Clear
4:53 AM 53.1 °F 51.1 °F 93% 30.18 in 10.0 mi Calm Calm - N/A   Clear
5:53 AM 51.1 °F 50.0 °F 96% 30.19 in 10.0 mi Calm Calm - N/A   Clear
6:53 AM 52.0 °F 50.0 °F 93% 30.20 in 10.0 mi East 3.5 mph - N/A   Clear
7:53 AM 55.9 °F 52.0 °F 87% 30.20 in 10.0 mi Calm Calm - N/A   Clear
8:53 AM 64.0 °F 55.9 °F 75% 30.20 in 10.0 mi Calm Calm - N/A   Clear
9:53 AM 64.9 °F 55.9 °F 73% 30.20 in 10.0 mi West 4.6 mph - N/A   Clear
10:53 AM 68.0 °F 55.9 °F 65% 30.18 in 10.0 mi Calm Calm - N/A   Clear
11:53 AM 71.1 °F 55.9 °F 59% 30.15 in 10.0 mi Calm Calm - N/A   Clear
12:53 PM 73.9 °F 55.9 °F 53% 30.13 in 10.0 mi Calm Calm - N/A   Clear
1:53 PM 75.0 °F 54.0 °F 48% 30.10 in 10.0 mi SW 3.5 mph - N/A   Clear
2:53 PM 75.9 °F 55.0 °F 48% 30.09 in 10.0 mi Calm Calm - N/A   Clear
3:53 PM 75.9 °F 54.0 °F 46% 30.09 in 10.0 mi Calm Calm - N/A   Clear
4:53 PM 72.0 °F 55.0 °F 55% 30.07 in 10.0 mi Calm Calm - N/A   Clear
5:53 PM 68.0 °F 55.0 °F 63% 30.08 in 10.0 mi Calm Calm - N/A   Clear
6:53 PM 64.0 °F 55.0 °F 73% 30.09 in 10.0 mi Variable 3.5 mph - N/A   Clear
7:53 PM 61.0 °F 55.0 °F 81% 30.09 in 10.0 mi NE 3.5 mph - N/A   Clear
8:53 PM 62.1 °F 55.9 °F 80% 30.09 in 10.0 mi ENE 3.5 mph - N/A   Clear
9:53 PM 59.0 °F 55.9 °F 90% 30.10 in 10.0 mi Calm Calm - N/A   Clear
10:53 PM 60.1 °F 55.9 °F 86% 30.09 in 10.0 mi East 3.5 mph - N/A   Clear
11:53 PM 60.1 °F 55.0 °F 83% 30.09 in 10.0 mi East 3.5 mph - N/A   Clear